Location: Nitra
(0.0000°N, 18.0833°E)
Time: 19:41:02
(UTC+02:00)

A-11 Canister half - Pass Details

Date: 07 April 2023
Orbit: 1526 x 1682 km, 47.3° (Epoch: 08 June)

Event Time Altitude Azimuth Distance (km) Brightness Sun altitude
Rises 20:23:40 0° 345° (NNW) 4,811 11.9 -23.3°
Reaches altitude 10° 20:27:49 10° 360° (N) 3,799 11.1 -24.3°
Enters shadow 20:34:32 22° 45° (NE) 2,919 10.1 -26.0°
Maximum altitude 20:34:46 22° 47° (NE) 2,916 - -26.0°
Drops below altitude 10° 20:41:33 10° 94° (E) 3,724 - -27.7°
Sets 20:45:31 0° 108° (ESE) 4,692 - -28.7°
